Weather in Denver

United States     39°44′23″N   104°59′08″W
temp.,
°C
wind,
m/s
gust,
m/s
humid.,
%
clouds,
%
prec.,
mm/h
press.,
hPa
HPBL,
m
16 may, sun
sun1600:00+12n1186100 2.2 101019
03:00+11wsw11938 0.0 101123
06:00+10n2292100 0.0 101046
09:00+13n3588100 0.1 1012536
12:00+14nne4573100 0.2 1012951
15:00+13nne3482100 0.7 1013651
18:00+12nne1190100 2.3 1014163
21:00+12w248770 0.6 1012127
17 may, mon
mon1700:00+11s1185100 0.6 101432
03:00+11sw1186100 0.4 101216
06:00+11w1185100 0.4 101239
09:00+11nne1184100 0.4 1013159
12:00+15ne326698 1.2 1011941
15:00+17ne445082 0.3 10091237
18:00+16ne4452100 0.8 10081131
21:00+14nne2467100 0.9 1009329
18 may, tue
tue1800:00+12se2387100 3.0 1010224
03:00+11nne3594100 1.0 1008284
06:00+11nnw2394100 2.3 1009303
09:00+10nnw3489100 1.5 1011369
12:00+14n2269100 1.8 1010641
15:00+18e334539 0.3 10061672
18:00+16se2361100 4.6 1006493
21:00+14wsw11735 1.8 100716
19 may, wed
wed1900:00+12wsw227916 1.8 100836
03:00+11wsw11791 0.0 100812
06:00+10w117510 0.0 100912
09:00+14ssw015577 0.0 1008367
12:00+19se113920 0.0 10061149
15:00+22se112914 0.0 10042092
18:00+18wsw434755 0.1 1004642
21:00+17ssw2249100 0.0 1005310
20 may, thu
thu2000:00+15wnw1259100 0.0 100647
03:00+14ssw1256100 0.0 100647
06:00+13sw22543 0.0 100721
09:00+18ssw233922 0.0 1007303
12:00+25s67191 0.0 10042877
15:00+28sse581595 0.0 10003992
18:00+25w3722100 0.0 10011496
21:00+19nne244561 0.0 1005254